This is the latest recevied weather packets stored in our database for station/object W5CDN. If no packets are shown the sender has not sent any weather packets the latest 10 day(s).
| Time | Temp. | Humidity | Pressure | Rain* | Wind** | Luminosity | Snow |
|---|---|---|---|---|---|---|---|
| 1787472690 | 26.11° C | 99% | 1013.5 hPa | 0 mm | - | - | - |
| 1787472390 | 26.11° C | 99% | 1013.4 hPa | 0 mm | - | - | - |
| 1787472090 | 26.11° C | 99% | 1013.3 hPa | 0 mm | - | - | - |
| 1787471790 | 26.11° C | 99% | 1013.3 hPa | 0 mm | - | - | - |
| 1787471490 | 26.11° C | 99% | 1013.3 hPa | 0.25 mm | - | - | - |
| 1787471190 | 26.11° C | 99% | 1013.3 hPa | 0.25 mm | - | - | - |
| 1787470890 | 26.67° C | 99% | 1013.3 hPa | 0.25 mm | - | - | - |
| 1787470590 | 26.67° C | 99% | 1013.2 hPa | 0.25 mm | - | - | - |
| 1787470290 | 26.67° C | 99% | 1013.2 hPa | 0.25 mm | - | - | - |
| 1787469990 | 26.67° C | 99% | 1013.4 hPa | 0.25 mm | - | - | - |
| 1787469690 | 26.67° C | 97% | 1013.4 hPa | 0.25 mm | - | - | - |
| 1787469390 | 26.67° C | 94% | 1013.5 hPa | 0.25 mm | - | - | - |
| 1787469090 | 26.11° C | 97% | 1013.4 hPa | 0.25 mm | - | - | - |
| 1787468790 | 26.67° C | 95% | 1013.6 hPa | 0.25 mm | - | - | - |
| 1787468490 | 26.67° C | 90% | 1013.7 hPa | 0.25 mm | - | - | - |
| 1787468190 | 27.22° C | 91% | 1013.6 hPa | 0 mm | - | - | - |
| 1787467890 | 27.22° C | 87% | 1013.6 hPa | 0 mm | - | - | - |
| 1787467590 | 27.22° C | 85% | 1013.7 hPa | 0.51 mm | - | - | - |
| 1787467290 | 27.22° C | 86% | 1013.7 hPa | 0.51 mm | - | - | - |
| 1787466990 | 27.22° C | 81% | 1013.7 hPa | 0.51 mm | - | - | - |
| 1787466690 | 27.22° C | 80% | 1013.6 hPa | 0.51 mm | - | - | - |
| 1787466390 | 26.67° C | 83% | 1013.6 hPa | 0.51 mm | - | - | - |
| 1787466090 | 26.11° C | 88% | 1013.8 hPa | 0.51 mm | - | - | - |
| 1787465790 | 26.11° C | 88% | 1013.7 hPa | 0.51 mm | - | - | - |
| 1787465490 | 26.67° C | 85% | 1014.1 hPa | 0.51 mm | - | - | - |
* Rain latest hour (hover to see other rain measurements)
** Current wind speed in m/s (hover to see current wind gust speed)